Tracking 29892 objects as of 21-Nov-2024
HD Live streaming from Space Station
objects crossing your sky now

TITAN 3C TRANSTAGE DEB

Track TITAN 3C TRANSTAGE DEB now!
10-day predictions


NORAD ID: 1684
Int'l Code: 1965-082AX
Perigee: 649.7 km
Apogee: 897.0 km
Inclination: 32.2 °
Period: 100.2 minutes
Semi major axis: 7144 km
RCS: 1.2615 m2 (large)
Launch date: October 15, 1965
Source: United States (US)
Launch site: AIR FORCE EASTERN TEST RANGE (AFETR)

Note: This is SATELLITE DEBRIS
Your satellite tracking list
Your tracking list is empty




NASA's NSSDC Master Catalog

Two Line Element Set (TLE):
1 01684U 65082AX  24325.90937416  .00002960  00000-0  80647-3 0  9990
2 01684  32.2124 202.8257 0173070 132.1793 229.3685 14.37662590 59894
Source of the keplerian elements: AFSPC